Newton, NJ

6:45 PM EST on December 04, 2016 (GMT -0500)
Andover

Weather History for K12N - July, 2013

Change the Weather History Date:

Saturday, July 20, 2013

  Actual Average (KFWN) Record (KFWN)
Temperature  
Mean Temperature 82 °F -  
Max Temperature 91 °F 85 °F 97 °F (1991)
Min Temperature 73 °F 61 °F 44 °F (1965)
Cooling Degree Days 17    
Growing Degree Days 32 (Base 50)    
Moisture  
Dew Point 71 °F    
Average Humidity 75    
Maximum Humidity 93    
Minimum Humidity 50    
Precipitation  
Precipitation 0.05 in - - ()
Sea Level Pressure  
Sea Level Pressure 29.79 in    
Wind  
Wind Speed 3 mph (SW)    
Max Wind Speed 12 mph    
Max Gust Speed 20 mph    
Averages and records for this station are not official NWS values.
T = Trace of Precipitation, MM = Missing Value Source: NWS Daily Summary

Daily Weather History Graph

Daily Weather History Graph

Search for Another Location

Airport or City:

Trip Planner

Search our weather history database for the weather conditions in past years. The results will help you decide how hot, cold, wet, or windy it might be!

Date:

Astronomy

Jul. 20, 2013 Rise Set
Actual Time 5:44 AM EDT 8:26 PM EDT
Civil Twilight 5:11 AM EDT 8:58 PM EDT
Nautical Twilight 4:31 AM EDT 9:38 PM EDT
Astronomical Twilight 3:45 AM EDT 10:23 PM EDT
Moon 6:27 PM EDT (7/20) 3:21 AM EDT (7/20)
Length of Visible Light 15h 46m
Length of Day
14h 42m
Waxing Gibbous, 93% of the Moon is Illuminated
Jul 20
Waxing Gibbous
Jul 22
Full
Jul 29
Last Quarter
Aug 6
New
Aug 14
First Quarter

Hourly Weather History & Observations

Time (EDT) Temp. Heat Index Dew Point Humidity Pressure Visibility Wind Dir Wind Speed Gust Speed Precip Events Conditions
12:54 AM 78.1 °F - 72.0 °F 81% 29.83 in - Calm Calm - N/A   Unknown
1:54 AM 79.0 °F - 70.0 °F 74% 29.82 in - Variable 3.5 mph - N/A   Unknown
2:54 AM 75.9 °F - 70.0 °F 82% 29.80 in - Calm Calm - N/A   Unknown
3:54 AM 75.9 °F - 70.0 °F 82% 29.78 in - Calm Calm - N/A   Unknown
4:54 AM 73.9 °F - 70.0 °F 87% 29.78 in - Calm Calm - N/A   Unknown
5:54 AM 73.9 °F - 69.1 °F 85% 29.80 in - Calm Calm - N/A   Unknown
6:54 AM 75.0 °F - 70.0 °F 84% 29.80 in - Calm Calm - N/A   Unknown
7:54 AM 75.9 °F - 70.0 °F 82% 29.82 in - SSW 3.5 mph - N/A   Unknown
8:54 AM 79.0 °F - 70.0 °F 74% 29.80 in - SSW 3.5 mph - N/A   Unknown
9:54 AM 82.0 °F 85.9 °F 70.0 °F 67% 29.80 in - SW 8.1 mph - N/A   Unknown
10:54 AM 84.9 °F 90.1 °F 71.1 °F 63% 29.78 in - SSW 8.1 mph - N/A   Unknown
11:54 AM 86.0 °F 91.5 °F 71.1 °F 61% 29.77 in - SW 9.2 mph 16.1 mph N/A   Unknown
12:54 PM 87.1 °F 92.0 °F 70.0 °F 57% 29.76 in - SW 10.4 mph 19.6 mph N/A   Unknown
1:54 PM 88.0 °F 93.8 °F 71.1 °F 57% 29.76 in - WSW 9.2 mph - N/A   Unknown
2:54 PM 91.0 °F 96.6 °F 70.0 °F 50% 29.74 in - SSW 11.5 mph 18.4 mph N/A   Unknown
3:54 PM 89.1 °F 93.7 °F 69.1 °F 52% 29.74 in - Variable 5.8 mph - N/A   Unknown
4:54 PM 81.0 °F 84.9 °F 71.1 °F 72% 29.77 in - Variable 3.5 mph - 0.05 in   Unknown
5:54 PM 81.0 °F 84.1 °F 69.1 °F 67% 29.76 in - Calm Calm - N/A   Unknown
6:54 PM 80.1 °F 83.8 °F 72.0 °F 76% 29.75 in - Calm Calm - N/A   Unknown
7:54 PM 78.1 °F - 72.0 °F 81% 29.78 in - Calm Calm - N/A   Unknown
8:54 PM 75.9 °F - 72.0 °F 87% 29.81 in - Calm Calm - N/A   Unknown
9:54 PM 73.9 °F - 72.0 °F 93% 29.81 in - Calm Calm - N/A   Unknown
10:54 PM 75.0 °F - 71.1 °F 87% 29.83 in - Calm Calm - N/A   Unknown
11:54 PM 73.9 °F - 71.1 °F 91% 29.84 in - Calm Calm - N/A   Unknown